Stations météo

Publicité
Lille, France (7015): Température de l'air & dewpoint: 18.01.2021 07:00:00 - 24.01.2021 07:00:00 (CET)Lille, France (7015): Température de l'air 5cm: 18.01.2021 07:00:00 - 24.01.2021 07:00:00 (CET)Lille, France (7015): Température de l'air -20cm & Température de l'air -100cm: 18.01.2021 07:00:00 - 24.01.2021 07:00:00 (CET)Lille, France (7015): Vitesse du vent & gusts: 18.01.2021 07:00:00 - 24.01.2021 07:00:00 (CET)Lille, France (7015): Direction du vent: 18.01.2021 07:00:00 - 24.01.2021 07:00:00 (CET)Lille, France (7015): reduced air pressure: 18.01.2021 07:00:00 - 24.01.2021 07:00:00 (CET)Lille, France (7015): visibility: 18.01.2021 07:00:00 - 24.01.2021 07:00:00 (CET)Lille, France (7015): Quantités de précipitations: 18.01.2021 07:00:00 - 24.01.2021 07:00:00 (CET)
Date & Time tt [°C] td [°C] tt 5cm [°C] tt -20cm [°C] tt -100cm [°C] ff [km/h] ff [knt] fx [km/h] fx [knt] dd ppp [hPa] vv [km] rr [mm]
24.01.2021 07:00:00 -0,8 -2,4 -1,4 2,8 6,6 13 7 18 10 SW 1000,5 13 0,0
24.01.2021 06:00:00 0,0 -1,8 -0,8 2,9 6,6 14 8 26 14 W 1000,1 20 0,0
24.01.2021 05:00:00 0,4 -1,4 -0,5 2,9 6,6 19 10 29 16 W 999,9 26 0,0
24.01.2021 04:00:00 0,3 -1,6 -0,4 3,0 6,6 17 9 29 15 W 999,2 22 0,0
24.01.2021 03:00:00 1,2 -0,7 0,4 3,1 6,6 19 11 37 20 W 998,7 25 0,0
24.01.2021 02:00:00 1,1 -0,5 0,1 3,2 6,6 22 12 34 18 W 998,0 26 0,0
24.01.2021 01:00:00 0,9 -0,4 -0,2 3,4 6,6 19 10 31 17 W 997,3 34 0,0
24.01.2021 00:00:00 0,5 -0,5 -0,1 3,5 6,6 18 10 25 14 W 997,0 20 0,0
23.01.2021 23:00:00 0,5 -0,5 -0,2 3,7 6,6 14 8 29 16 W 996,6 14 0,0
23.01.2021 22:00:00 1,0 0,0 0,3 3,8 6,6 21 11 45 25 W 996,2 19 0,0
23.01.2021 21:00:00 1,4 0,5 0,5 4,0 6,6 15 8 24 13 WNW 995,6 16 0,0
23.01.2021 20:00:00 1,9 1,0 1,4 4,1 6,6 12 6 25 14 WNW 995,1 19 0,0
23.01.2021 19:00:00 1,6 0,7 1,0 4,2 6,6 11 6 12 7 W 994,8 3,9 0,0
23.01.2021 18:00:00 1,8 0,8 1,4 4,2 6,6 6 4 22 12 NNW 994,3 10 0,8
23.01.2021 17:00:00 1,9 0,7 1,7 4,3 6,6 17 9 27 15 NNW 994,1 5 1,0
23.01.2021 16:00:00 3,8 2,2 3,5 4,2 6,6 16 9 23 12 NW 993,4 7 0,0
23.01.2021 15:00:00 4,4 2,4 4,6 4,0 6,6 6 3 8 5 NNW 993,1 33 0,0
23.01.2021 14:00:00 4,1 2,4 4,3 3,9 6,6 4 2 14 8 SSE 993,4 30 0,0
23.01.2021 13:00:00 3,7 2,5 3,5 3,7 6,6 9 5 26 14 SSE 994,0 28 0,0
23.01.2021 12:00:00 3,1 2,1 3,3 3,5 6,6 16 9 27 14 SSE 994,5 11 0,0
23.01.2021 11:00:00 3,0 2,1 2,5 3,5 6,6 16 9 26 14 SSE 994,5 16 0,0
23.01.2021 10:00:00 2,1 1,2 1,4 3,4 6,6 9 5 14 8 SE 995,1 28 0,0
23.01.2021 09:00:00 1,7 0,7 0,9 3,5 6,6 4 2 15 8 SE 995,4 44 0,0
23.01.2021 08:00:00 1,8 0,6 1,1 3,6 6,6 10 5 21 11 S 995,6 40 0,0
23.01.2021 07:00:00 1,9 0,6 1,3 3,7 6,6 14 8 27 15 S 995,5 40 0,0
23.01.2021 06:00:00 2,3 0,8 1,7 3,8 6,6 18 10 29 16 SSW 995,5 48 0,0
23.01.2021 05:00:00 2,7 1,1 2,1 3,9 6,6 16 9 30 16 SSW 995,9 52 0,0
23.01.2021 04:00:00 3,1 1,6 2,0 4,0 6,6 20 11 30 16 SSW 995,8 55 0,0
23.01.2021 03:00:00 3,7 2,2 2,6 4,2 6,6 19 10 31 17 SW 995,9 54 0,0
23.01.2021 02:00:00 3,7 2,2 2,2 4,3 6,6 12 6 21 11 SSW 996,5 38 0,0
23.01.2021 01:00:00 3,8 1,8 3,0 4,3 6,6 14 8 32 17 SSW 996,6 47 0,0
23.01.2021 00:00:00 3,9 2,4 3,0 4,3 6,6 15 8 23 12 S 996,8 33 0,0
22.01.2021 23:00:00 3,8 2,5 2,8 4,4 6,6 11 6 19 11 S 996,6 28 0,0
22.01.2021 22:00:00 3,3 2,1 2,1 4,6 6,6 14 8 19 11 S 997,0 29 0,0
22.01.2021 21:00:00 2,8 1,6 2,0 4,7 6,5 10 5 13 7 S 996,9 20 0,0
22.01.2021 20:00:00 3,1 1,6 2,1 4,9 6,6 8 5 11 6 S 997,1 20 0,0
22.01.2021 19:00:00 3,9 2,1 2,7 5,1 6,6 7 4 11 6 S 996,8 19 0,0
22.01.2021 18:00:00 4,0 1,9 3,3 5,2 6,5 9 5 11 6 S 996,3 36 0,0
22.01.2021 17:00:00 5,1 1,9 4,4 5,3 6,5 7 4 12 6 SSW 995,8 54 0,0
22.01.2021 16:00:00 6,5 2,4 6,8 5,2 6,5 8 4 17 9 SW 995,8 59 0,0
22.01.2021 15:00:00 6,6 2,5 7,2 5,0 6,5 13 7 21 12 SW 995,6 55 0,0
22.01.2021 14:00:00 6,7 3,3 7,1 4,8 6,5 15 8 22 12 SW 995,4 27 0,0
22.01.2021 13:00:00 6,3 3,5 6,7 4,6 6,5 13 7 20 11 SW 995,3 44 0,0
22.01.2021 12:00:00 5,8 4,0 5,3 4,4 6,5 14 7 21 11 SW 995,1 37 0,0
22.01.2021 11:00:00 4,3 3,6 2,3 4,4 6,5 11 6 17 9 SW 994,3 18 0,0
22.01.2021 10:00:00 2,6 1,9 1,6 4,5 6,5 11 6 13 7 SSW 993,5 24 0,0
22.01.2021 09:00:00 2,4 1,5 1,7 4,6 6,5 9 5 12 7 S 992,7 17 0,0
22.01.2021 08:00:00 2,8 2,1 2,0 4,7 6,5 9 5 16 9 SSW 991,9 36 0,0
22.01.2021 07:00:00 2,7 1,8 2,1 4,9 6,5 9 5 14 8 SW 991,2 42 0,0
22.01.2021 06:00:00 3,0 2,1 1,9 5,0 6,5 9 5 19 11 SSW 990,8 41 0,0
22.01.2021 05:00:00 3,0 2,0 2,3 5,2 6,5 11 6 24 13 SW 990,6 56 0,0
22.01.2021 04:00:00 3,5 2,5 2,4 5,4 6,5 17 9 26 14 SW 990,2 58 0,0
22.01.2021 03:00:00 3,4 2,4 2,6 5,6 6,5 13 7 22 12 SSW 989,5 60 0,0
22.01.2021 02:00:00 4,0 3,0 3,5 5,8 6,5 13 7 23 12 SW 988,9 56 0,0
22.01.2021 01:00:00 4,0 2,8 3,5 5,9 6,5 13 7 38 21 W 987,9 35 0,0
22.01.2021 00:00:00 4,4 3,2 4,0 6,0 6,4 22 12 44 24 WNW 986,5 17 1,4
21.01.2021 23:00:00 5,2 3,8 4,9 6,0 6,4 18 10 55 30 NW 984,9 9 1,6
21.01.2021 22:00:00 8,7 6,3 7,4 6,0 6,5 42 23 67 36 SSW 983,0 55 0,0
21.01.2021 21:00:00 8,7 6,5 7,6 5,9 6,5 37 20 68 37 S 983,3 18 0,0
21.01.2021 20:00:00 8,9 7,5 6,2 5,8 6,4 36 20 56 31 S 983,6 60 0,0
21.01.2021 19:00:00 6,5 5,6 5,6 5,8 6,4 23 12 37 20 SE 984,9 5 2,2
21.01.2021 18:00:00 6,0 4,8 5,5 5,8 6,4 14 8 28 15 SE 987,7 5 2,4
21.01.2021 17:00:00 6,2 4,2 5,5 5,9 6,4 16 8 52 28 S 990,3 14 0,8
21.01.2021 16:00:00 7,6 3,8 6,4 5,8 6,4 32 17 54 29 SSW 991,5 19 0,0
21.01.2021 15:00:00 7,8 4,0 7,8 5,7 6,4 35 19 58 31 S 991,8 39 0,0
21.01.2021 14:00:00 7,9 4,1 8,2 5,6 6,4 33 18 54 29 S 992,5 29 0,0
21.01.2021 13:00:00 7,6 3,8 7,6 5,4 6,4 35 19 61 33 S 993,0 29 0,0
21.01.2021 12:00:00 7,0 3,8 6,5 5,2 6,4 32 17 55 30 S 993,5 28 0,0
21.01.2021 11:00:00 6,2 3,5 5,9 5,2 6,4 30 16 48 26 SSW 993,5 40 0,0
21.01.2021 10:00:00 5,7 3,0 4,6 5,3 6,4 32 17 48 26 SSW 993,0 17 0,0
21.01.2021 09:00:00 5,1 2,4 4,5 5,5 6,4 28 15 42 23 S 992,7 49 0,0
21.01.2021 08:00:00 5,4 2,6 4,8 5,6 6,4 23 12 40 21 S 992,0 58 0,0
21.01.2021 07:00:00 5,6 2,2 4,8 5,8 6,3 20 11 45 24 SSW 991,1 48 0,0
21.01.2021 06:00:00 6,5 2,2 5,7 6,0 6,4 27 15 49 26 SW 990,2 56 0,0
21.01.2021 05:00:00 6,9 2,4 5,6 6,1 6,4 48 26 81 44 WSW 988,8 60 0,2
21.01.2021 04:00:00 7,0 5,1 4,4 6,2 6,3 36 19 101 55 SW 987,1 40 2,9
21.01.2021 03:00:00 11,0 7,7 8,9 6,2 6,4 48 26 86 47 S 983,0 59 0,2
21.01.2021 02:00:00 10,8 6,7 8,4 6,0 6,3 45 24 79 43 S 983,5 60 0,4
21.01.2021 01:00:00 11,0 5,9 8,2 5,9 6,3 49 26 77 42 S 984,5 55 0,6
21.01.2021 00:00:00 10,9 5,2 9,7 5,8 6,3 44 24 70 38 S 985,8 58 0,0
20.01.2021 23:00:00 10,5 5,0 9,2 5,8 6,3 35 19 67 36 SSE 987,4 60 0,0
20.01.2021 22:00:00 9,9 3,8 9,1 5,8 6,3 34 18 52 28 S 989,2 60 0,0
20.01.2021 21:00:00 10,2 3,9 8,4 5,8 6,3 35 19 61 33 S 990,4 60 0,0
20.01.2021 20:00:00 9,6 4,2 8,1 5,8 6,3 38 20 69 37 S 991,6 45 0,0
20.01.2021 19:00:00 9,5 4,1 7,3 5,8 6,3 35 19 55 30 S 992,2 36 0,4
20.01.2021 18:00:00 9,9 3,0 8,2 5,8 6,3 29 16 51 27 S 992,7 43 0,0
20.01.2021 17:00:00 9,8 2,4 9,2 5,8 6,3 27 15 53 29 S 992,9 60 0,0
20.01.2021 16:00:00 9,8 2,2 9,5 5,8 6,3 34 19 56 30 S 993,5 51 0,0
20.01.2021 15:00:00 9,6 2,4 9,0 5,7 6,3 37 20 56 30 S 994,5 42 0,0
20.01.2021 14:00:00 8,9 2,2 8,8 5,6 6,3 34 18 53 28 S 995,2 54 0,0
20.01.2021 13:00:00 8,5 2,9 7,6 5,5 6,3 35 19 55 30 S 996,5 36 0,0
20.01.2021 12:00:00 7,8 3,5 7,1 5,4 6,2 32 17 55 30 S 997,5 31 0,0
20.01.2021 11:00:00 7,6 3,6 7,3 5,4 6,3 33 18 56 30 S 998,7 47 0,0
20.01.2021 10:00:00 7,6 3,3 6,6 5,3 6,3 32 18 48 26 S 999,1 48 0,0
20.01.2021 09:00:00 7,0 3,6 6,3 5,3 6,3 31 17 50 27 S 999,5 60 0,0
20.01.2021 08:00:00 6,8 4,3 6,4 5,3 6,2 30 16 51 27 S 999,7 43 0,0
20.01.2021 07:00:00 6,9 5,0 6,3 5,3 6,3 29 15 48 26 S 1000,0 52 0,0
20.01.2021 06:00:00 6,9 5,2 6,1 5,2 6,2 31 17 55 30 S 1000,5 39 0,0
20.01.2021 05:00:00 7,0 4,6 6,3 5,2 6,2 32 17 50 27 S 1001,1 34 0,0
20.01.2021 04:00:00 7,0 4,5 6,5 5,2 6,2 30 16 52 28 S 1001,7 37 0,0
20.01.2021 03:00:00 6,8 4,8 5,9 5,2 6,2 31 17 53 28 S 1002,2 27 0,0
20.01.2021 02:00:00 6,8 4,8 6,2 5,2 6,2 31 17 50 27 S 1003,2 19 0,0
20.01.2021 01:00:00 6,5 4,3 6,0 5,2 6,2 29 16 50 27 S 1003,6 25 0,0
20.01.2021 00:00:00 6,4 4,1 5,8 5,3 6,3 29 16 53 29 S 1004,4 31 0,0
19.01.2021 23:00:00 6,3 4,1 5,8 5,4 6,2 32 18 51 28 S 1004,7 37 0,0
19.01.2021 22:00:00 6,7 4,7 6,2 5,5 6,3 36 19 53 29 S 1005,7 30 0,0
19.01.2021 21:00:00 6,9 4,9 6,5 5,5 6,2 38 20 55 30 S 1006,6 31 0,0
19.01.2021 20:00:00 7,0 5,1 6,6 5,6 6,3 31 17 46 25 S 1007,3 36 0,0
19.01.2021 19:00:00 7,0 5,1 6,8 5,6 6,2 31 17 46 25 S 1008,1 36 0,0
19.01.2021 18:00:00 7,5 5,6 7,3 5,6 6,2 28 15 48 26 S 1008,6 46 0,0
19.01.2021 17:00:00 8,0 6,5 7,6 5,6 6,2 24 13 37 20 S 1008,9 45 0,0
19.01.2021 16:00:00 8,1 6,7 7,7 5,6 6,3 21 12 46 25 SSW 1009,1 19 0,0
19.01.2021 15:00:00 9,1 7,4 8,8 5,3 6,2 30 16 49 27 SW 1009,2 38 0,0
19.01.2021 14:00:00 9,6 8,0 8,9 5,1 6,2 33 18 50 27 SW 1009,7 24 0,0
19.01.2021 13:00:00 9,4 8,5 8,4 4,8 6,2 28 15 49 26 SW 1010,0 45 0,0
19.01.2021 12:00:00 8,7 7,9 7,6 4,6 6,3 33 18 49 26 SW 1010,2 11 0,0
19.01.2021 11:00:00 7,9 7,1 6,9 4,4 6,2 28 15 49 26 SSW 1010,1 7 0,2
19.01.2021 10:00:00 7,2 6,3 5,9 4,2 6,3 32 17 57 31 SSW 1009,8 17 0,0
19.01.2021 09:00:00 6,4 5,3 5,3 4,1 6,2 32 17 49 27 SSW 1010,0 18 0,4
19.01.2021 08:00:00 5,8 4,6 5,1 4,0 6,3 31 17 51 28 SSW 1010,3 16 0,6
19.01.2021 07:00:00 5,7 4,3 4,9 3,9 6,3 36 19 61 33 SSW 1011,0 19 1,0
19.01.2021 06:00:00 5,7 3,9 5,0 3,8 6,3 40 22 65 35 SSW 1011,5 17 0,0
19.01.2021 05:00:00 5,6 3,9 4,9 3,8 6,3 37 20 57 31 S 1012,7 35 0,0
19.01.2021 04:00:00 5,1 3,6 4,3 3,7 6,3 29 16 46 25 SSW 1014,0 27 0,0
19.01.2021 03:00:00 4,7 3,0 3,8 3,7 6,3 29 16 46 25 S 1015,4 20 0,0
19.01.2021 02:00:00 4,3 2,5 3,8 3,6 6,3 28 15 44 24 S 1016,4 15 0,0
19.01.2021 01:00:00 4,5 2,4 3,7 3,7 6,3 26 14 45 24 S 1017,8 31 0,0
19.01.2021 00:00:00 4,4 2,1 3,6 3,8 6,3 25 14 39 21 S 1018,7 44 0,0
18.01.2021 23:00:00 4,3 2,2 3,7 3,9 6,4 22 12 39 21 S 1019,7 44 0,0
18.01.2021 22:00:00 4,9 2,6 4,5 3,9 6,3 26 14 39 21 SSW 1020,4 47 0,0
18.01.2021 21:00:00 5,5 3,5 4,9 3,9 6,3 18 10 29 15 SSW 1020,9 43 0,0
18.01.2021 20:00:00 5,4 4,4 4,8 3,8 6,3 18 10 27 15 S 1021,6 31 0,0
18.01.2021 19:00:00 5,3 4,3 4,9 3,8 6,4 9 5 29 16 WSW 1022,0 7 1,0
18.01.2021 18:00:00 5,7 4,5 4,8 3,7 6,4 19 10 29 16 SW 1022,1 9 0,0
18.01.2021 17:00:00 5,4 4,5 5,0 3,7 6,4 13 7 29 16 SSW 1022,4 7 0,2
18.01.2021 16:00:00 5,5 4,3 5,2 3,5 6,4 21 12 38 21 SSW 1022,6 12 0,0
18.01.2021 15:00:00 5,9 4,4 5,7 3,2 6,4 20 11 33 18 SSW 1022,6 16 0,2
18.01.2021 14:00:00 5,7 3,9 5,6 2,9 6,4 16 9 31 17 SW 1023,6 16 0,0
18.01.2021 13:00:00 5,5 4,0 5,5 2,6 6,4 21 11 34 18 SW 1024,6 15 0,0
18.01.2021 12:00:00 4,9 3,9 3,6 2,3 6,4 15 8 24 13 SSW 1024,7 20 0,2
18.01.2021 11:00:00 3,8 2,9 2,5 2,2 6,4 13 7 18 10 SSW 1025,1 19 0,0
18.01.2021 10:00:00 2,6 1,7 1,5 2,2 6,4 11 6 19 10 SW 1025,1 16 0,0
18.01.2021 09:00:00 2,0 1,1 1,0 2,2 6,4 13 7 21 11 SSW 1025,2 16 0,0
18.01.2021 08:00:00 1,2 0,5 0,5 2,2 6,4 6 3 9 5 S 1025,2 11 0,0
18.01.2021 07:00:00 1,2 0,5 0,2 2,3 6,4 8 4 12 6 SSW 1025,4 14 0,0

tt = Température de l'air
td = dewpoint
tt 5cm = Température de l'air 5cm
tt -20cm = Température de l'air -20cm
tt -100cm = Température de l'air -100cm
ff = Vitesse du vent
fx = gusts
dd = Direction du vent
ppp = reduced air pressure
vv = visibility
rr = Quantités de précipitations

stations d'obs. à proximité